Погода в Тамге

Россия / Приморский край     45°34′29″N   133°37′04″E
темп.,
°C
ветер,
м/с
пор.,
м/с
влажн.,
%
обл.,
%
осадки,
мм/ч
давл.,
гПа
погр.,
м
24 мая, вт
вт2401:00+15ююз4117396 0.0 1008272
04:00+13ю4118991 1.1 1007284
07:00+13ю41185100 0.2 1008475
10:00+19ююз6970100 0.2 1008828
13:00+23юз78615 0.0 10071159
16:00+23юз686044 0.0 1005787
19:00+17з71495100 7.6 1006887
22:00+15зюз3596100 14.4 1009232
25 мая, ср
ср2501:00+13зсз2298100 0.3 1009110
04:00+13с2495100 0.6 1009170
07:00+12с3595100 0.4 1010262
10:00+14ссв4586100 0.4 1009452
13:00+17ссв557658 0.0 1009670
16:00+18с6673100 0.0 1007821
19:00+17ссв697795 0.0 1006603
22:00+13с4793100 0.5 1008144
26 мая, чт
чт2601:00+11ссв389168 0.0 1007159
04:00+10св369399 0.0 1006107
07:00+12всв1290100 0.0 100784
10:00+18вюв1277100 0.0 1006441
13:00+22ссв236388 0.0 1005868
16:00+25ссз4355100 0.0 1002745
19:00+20с2479100 0.5 100177
22:00+14юз51094100 1.6 1003213
27 мая, пт
пт2701:00+13юв119226 0.0 100311
04:00+12ю1193100 0.0 100310
07:00+12в2594100 1.1 1003167
10:00+16ююв228232 1.7 1002467
13:00+21ю135812 0.4 10001365
16:00+21ссв3358100 0.8 9981142
19:00+18в3679100 1.1 998188
22:00+14юв2386100 1.3 99841
28 мая, сб
сб2801:00+13в338879 0.0 99856
04:00+12ююз1188100 0.0 99813
07:00+13ююз1287100 0.0 99993
10:00+17юз337595 0.0 999698
13:00+21зюз336247 0.1 9991355
16:00+23зсз355575 0.6 9981832
19:00+20зсз347574 0.6 99974
22:00+17зюз118414 1.3 100111